Location: Ferchesar
(52.6477°N, 12.4298°E)
Time: 08:22:19
(UTC+01:00)

SR - All Passes

Search period start: 07 December 2021 00:00
Search period end: 17 December 2021 00:00
Orbit: 583 x 871 km, 66.7° (Epoch: 06 December)

Date Brightness Start Highest point End Pass type
(mag) Time Alt. Az. Time Alt. Az. Time Alt. Az.
07 Dec - 01:36:52 10° WNW 01:40:03 19° NNW 01:43:12 10° NNE night (unlit)
07 Dec - 03:21:47 10° NNW 03:23:42 13° N 03:25:38 10° NNE visible
07 Dec - 05:04:05 10° NNW 05:07:20 20° NNE 05:10:37 10° ENE visible
07 Dec - 06:45:42 10° NW 06:50:01 75° NE 06:54:29 10° SE visible
07 Dec - 08:28:33 10° WNW 08:31:33 18° WSW 08:34:38 10° SSW daylight
07 Dec - 21:25:16 10° ESE 21:26:13 11° ESE 21:27:09 10° E night (unlit)
07 Dec - 23:02:59 10° SSW 23:07:27 68° SE 23:11:43 10° NE night (unlit)
08 Dec - 00:46:02 10° W 00:49:47 27° NNW 00:53:28 10° NNE night (unlit)
08 Dec - 02:31:06 10° NW 02:33:12 13° N 02:35:19 10° NNE night (unlit)
08 Dec - 04:14:18 10° NNW 04:16:58 16° NNE 04:19:39 10° ENE visible
08 Dec - 05:55:55 10° NNW 06:00:02 43° NE 06:04:16 10° ESE visible
08 Dec - 07:38:03 10° NW 07:41:57 34° WSW 07:46:02 10° S daylight
08 Dec - 22:13:36 10° S 22:17:42 35° ESE 22:21:39 10° NE night (unlit)
08 Dec - 23:55:27 10° WSW 23:59:39 42° NW 00:03:45 10° NNE night (unlit)
09 Dec - 01:40:07 10° NW 01:42:45 16° NNW 01:45:21 10° NNE night (unlit)
09 Dec - 03:24:22 10° NNW 03:26:31 13° N 03:28:40 10° NE visible
09 Dec - 05:06:11 10° NNW 05:09:54 28° NE 05:13:43 10° E visible
09 Dec - 06:47:58 10° NW 06:52:14 64° SW 06:56:42 10° SSE visible
09 Dec - 08:33:13 10° WSW 08:33:25 10° WSW 08:33:37 10° WSW daylight
09 Dec - 21:24:55 10° SSE 21:28:06 19° ESE 21:31:12 10° ENE night (unlit)
09 Dec - 23:05:13 10° SW 23:09:40 72° NW 23:13:58 10° NE night (unlit)
10 Dec - 00:49:08 10° WNW 00:52:23 20° NNW 00:55:35 10° NNE night (unlit)
10 Dec - 02:34:06 10° NNW 02:36:01 13° N 02:37:56 10° NNE night (unlit)
10 Dec - 04:16:28 10° NNW 04:19:39 20° NNE 04:22:54 10° ENE visible
10 Dec - 05:58:04 10° NW 06:02:22 71° NE 06:06:51 10° SE visible
10 Dec - 07:40:48 10° WNW 07:43:58 20° WSW 07:47:14 10° SSW daylight
10 Dec - 22:15:24 10° SSW 22:19:49 63° SE 22:24:04 10° NE night (unlit)
10 Dec - 23:58:20 10° W 00:02:08 28° NW 00:05:52 10° NNE night (unlit)
11 Dec - 01:43:21 10° NW 01:45:31 13° N 01:47:40 10° NNE night (unlit)
11 Dec - 03:26:41 10° NNW 03:29:17 15° NNE 03:31:55 10° NE visible
11 Dec - 05:08:17 10° NNW 05:12:22 41° NE 05:16:36 10° ESE visible
11 Dec - 06:50:22 10° NW 06:54:21 36° WSW 06:58:31 10° S visible
11 Dec - 21:26:05 10° S 21:30:05 33° ESE 21:33:58 10° NE night (unlit)
11 Dec - 23:07:47 10° WSW 23:12:01 44° NW 23:16:07 10° NNE night (unlit)
12 Dec - 00:52:23 10° WNW 00:55:04 16° NNW 00:57:44 10° NNE night (unlit)
12 Dec - 02:36:43 10° NNW 02:38:49 13° N 02:40:56 10° NE visible
12 Dec - 04:18:34 10° NNW 04:22:14 27° NNE 04:26:01 10° E visible
12 Dec - 06:00:19 10° NW 06:04:37 69° SW 06:09:07 10° SSE visible
12 Dec - 07:44:38 10° W 07:45:51 11° WSW 07:47:05 10° WSW daylight
12 Dec - 20:37:31 10° SSE 20:40:31 18° ESE 20:43:26 10° ENE night (unlit)
12 Dec - 22:17:35 10° SW 22:22:02 76° NW 22:26:20 10° NE night (unlit)
13 Dec - 00:01:25 10° WNW 00:04:42 21° NNW 00:07:58 10° NNE night (unlit)
13 Dec - 01:46:23 10° NNW 01:48:19 13° N 01:50:15 10° NNE night (unlit)
13 Dec - 03:28:50 10° NNW 03:31:58 19° NNE 03:35:10 10° ENE visible
13 Dec - 05:10:26 10° NW 05:14:44 66° NE 05:19:13 10° SE visible
13 Dec - 06:53:04 10° WNW 06:56:22 21° WSW 06:59:48 10° SSW visible
13 Dec - 21:27:49 10° SSW 21:32:11 58° SE 21:36:25 10° NE night (unlit)
13 Dec - 23:10:37 10° W 23:14:28 29° NW 23:18:14 10° NNE night (unlit)
14 Dec - 00:55:37 10° NW 00:57:49 14° N 01:00:00 10° NNE night (unlit)
14 Dec - 02:39:02 10° NNW 02:41:36 15° NNE 02:44:10 10° NE visible
14 Dec - 04:20:40 10° NNW 04:24:43 39° NE 04:28:56 10° ESE visible
14 Dec - 06:02:41 10° NW 06:06:45 39° WSW 06:10:59 10° S visible
14 Dec - 20:38:34 10° S 20:42:29 31° ESE 20:46:17 10° NE night (unlit)
14 Dec - 22:20:07 10° WSW 22:24:21 46° NW 22:28:29 10° NNE night (unlit)
15 Dec - 00:04:37 10° WNW 00:07:22 16° NNW 00:10:06 10° NNE night (unlit)
15 Dec - 01:49:03 10° NNW 01:51:07 13° N 01:53:12 10° NE night (unlit)
15 Dec - 03:30:56 10° NNW 03:34:34 26° NNE 03:38:18 10° E visible
15 Dec - 05:12:39 10° NW 05:16:59 74° SW 05:21:31 10° SSE visible
15 Dec - 06:56:35 10° W 06:58:16 12° WSW 07:00:00 10° SW visible
15 Dec - 19:50:07 10° SSE 19:52:55 17° ESE 19:55:39 10° ENE night (unlit)
15 Dec - 21:29:58 10° SW 21:34:23 81° NW 21:38:41 10° NE night (unlit)
15 Dec - 23:13:40 10° WNW 23:17:01 21° NNW 23:20:20 10° NNE night (unlit)
16 Dec - 00:58:40 10° NNW 01:00:37 13° N 01:02:33 10° NNE night (unlit)
16 Dec - 02:41:12 10° NNW 02:44:17 19° NNE 02:47:26 10° ENE night (unlit)
16 Dec - 04:22:48 10° NW 04:27:05 63° NE 04:31:35 10° SE visible
16 Dec - 06:05:20 10° WNW 06:08:46 23° WSW 06:12:21 10° SSW visible
16 Dec - 20:40:15 10° SSW 20:44:34 54° ESE 20:48:45 10° NE night (unlit)
16 Dec - 22:22:55 10° W 22:26:47 30° NW 22:30:37 10° NNE night (unlit)
